Time,TemperatureF,DewpointF,PressureIn,WindDirection,WindDirectionDegrees,WindSpeedMPH,WindSpeedGustMPH,Humidity,HourlyPrecipIn,Conditions,Clouds,dailyrainin,SoftwareType,DateUTC
2013-02-23 00:12:00,38.9,36.0,30.19,NE,55,0.0,3.0,90,0.00,,,0.00,weatherlink.com 1.10,2013-02-23 08:12:00,
2013-02-23 00:27:00,39.1,36.0,30.19,WNW,289,3.0,5.0,89,0.00,,,0.00,weatherlink.com 1.10,2013-02-23 08:27:00,
2013-02-23 00:42:00,38.7,36.0,30.19,SW,224,1.0,7.0,88,0.00,,,0.00,weatherlink.com 1.10,2013-02-23 08:42:00,
2013-02-23 00:57:00,38.1,35.0,30.20,North,356,2.0,5.0,89,0.00,,,0.00,weatherlink.com 1.10,2013-02-23 08:57:00,
2013-02-23 01:12:00,37.9,35.0,30.21,WNW,299,3.0,6.0,90,0.00,,,0.00,weatherlink.com 1.10,2013-02-23 09:12:00,
2013-02-23 01:27:00,37.5,35.0,30.22,NE,43,3.0,5.0,91,0.00,,,0.00,weatherlink.com 1.10,2013-02-23 09:27:00,
2013-02-23 01:42:00,37.5,35.0,30.22,NNW,340,2.0,4.0,91,0.00,,,0.00,weatherlink.com 1.10,2013-02-23 09:42:00,
2013-02-23 01:57:00,36.8,34.0,30.23,West,277,2.0,9.0,90,0.00,,,0.00,weatherlink.com 1.10,2013-02-23 09:57:00,
2013-02-23 02:12:00,36.1,34.0,30.24,NNE,30,0.0,2.0,91,0.00,,,0.00,weatherlink.com 1.10,2013-02-23 10:12:00,
2013-02-23 02:27:00,35.8,34.0,30.24,NNE,26,1.0,1.0,92,0.00,,,0.00,weatherlink.com 1.10,2013-02-23 10:27:00,
2013-02-23 02:42:00,36.2,34.0,30.23,ENE,70,0.0,2.0,91,0.00,,,0.00,weatherlink.com 1.10,2013-02-23 10:42:00,
2013-02-23 02:57:00,36.2,34.0,30.23,ENE,69,0.0,0.0,91,0.00,,,0.00,weatherlink.com 1.10,2013-02-23 10:57:00,
2013-02-23 03:12:00,35.8,34.0,30.24,ESE,108,2.0,2.0,92,0.00,,,0.00,weatherlink.com 1.10,2013-02-23 11:12:00,
2013-02-23 03:27:00,35.7,34.0,30.24,ENE,75,0.0,2.0,92,0.00,,,0.00,weatherlink.com 1.10,2013-02-23 11:27:00,
2013-02-23 03:42:00,36.3,34.0,30.24,ENE,62,1.0,2.0,90,0.00,,,0.00,weatherlink.com 1.10,2013-02-23 11:42:00,
2013-02-23 03:57:00,36.5,34.0,30.24,ENE,72,1.0,1.0,89,0.00,,,0.00,weatherlink.com 1.10,2013-02-23 11:57:00,
2013-02-23 04:12:00,36.3,34.0,30.24,East,96,3.0,3.0,90,0.00,,,0.00,weatherlink.com 1.10,2013-02-23 12:12:00,
2013-02-23 04:27:00,36.5,33.0,30.25,East,83,0.0,3.0,87,0.00,,,0.00,weatherlink.com 1.10,2013-02-23 12:27:00,
2013-02-23 04:42:00,37.0,33.0,30.25,WNW,295,0.0,1.0,85,0.00,,,0.00,weatherlink.com 1.10,2013-02-23 12:42:00,
2013-02-23 04:57:00,36.4,33.0,30.26,WNW,295,0.0,1.0,87,0.00,,,0.00,weatherlink.com 1.10,2013-02-23 12:57:00,
2013-02-23 05:12:00,35.8,33.0,30.27,ENE,69,0.0,2.0,90,0.00,,,0.00,weatherlink.com 1.10,2013-02-23 13:12:00,
2013-02-23 05:27:00,36.3,33.0,30.28,ENE,69,0.0,1.0,88,0.00,,,0.00,weatherlink.com 1.10,2013-02-23 13:27:00,
2013-02-23 05:42:00,36.4,33.0,30.29,NNW,335,2.0,3.0,88,0.00,,,0.00,weatherlink.com 1.10,2013-02-23 13:42:00,
2013-02-23 05:57:00,36.2,33.0,30.29,NNW,347,0.0,2.0,88,0.00,,,0.00,weatherlink.com 1.10,2013-02-23 13:57:00,
2013-02-23 06:12:00,36.3,33.0,30.30,WNW,298,3.0,4.0,88,0.00,,,0.00,weatherlink.com 1.10,2013-02-23 14:12:00,
2013-02-23 06:27:00,36.0,33.0,30.30,WNW,300,2.0,4.0,89,0.00,,,0.00,weatherlink.com 1.10,2013-02-23 14:27:00,
2013-02-23 06:43:00,35.7,33.0,30.32,WSW,253,0.0,1.0,90,0.00,,,0.00,weatherlink.com 1.10,2013-02-23 14:43:00,
2013-02-23 06:58:00,35.5,33.0,30.32,WSW,252,0.0,1.0,90,0.00,,,0.00,weatherlink.com 1.10,2013-02-23 14:58:00,
2013-02-23 07:13:00,35.3,33.0,30.32,East,87,1.0,1.0,91,0.00,,,0.00,weatherlink.com 1.10,2013-02-23 15:13:00,
2013-02-23 07:28:00,35.2,33.0,30.32,ESE,102,1.0,2.0,92,0.00,,,0.00,weatherlink.com 1.10,2013-02-23 15:28:00,
2013-02-23 07:43:00,35.6,34.0,30.33,East,100,1.0,3.0,92,0.00,,,0.00,weatherlink.com 1.10,2013-02-23 15:43:00,
2013-02-23 07:58:00,35.9,34.0,30.34,ENE,72,0.0,3.0,91,0.00,,,0.00,weatherlink.com 1.10,2013-02-23 15:58:00,
2013-02-23 08:13:00,36.3,33.0,30.34,East,100,1.0,2.0,89,0.00,,,0.00,weatherlink.com 1.10,2013-02-23 16:13:00,
2013-02-23 08:28:00,36.6,33.0,30.35,East,94,0.0,2.0,86,0.00,,,0.00,weatherlink.com 1.10,2013-02-23 16:28:00,
2013-02-23 08:43:00,37.2,33.0,30.35,NE,56,1.0,2.0,84,0.00,,,0.00,weatherlink.com 1.10,2013-02-23 16:43:00,
2013-02-23 08:58:00,37.5,33.0,30.36,ESE,106,1.0,1.0,83,0.00,,,0.00,weatherlink.com 1.10,2013-02-23 16:58:00,
2013-02-23 09:13:00,37.8,33.0,30.37,East,99,0.0,1.0,82,0.00,,,0.00,weatherlink.com 1.10,2013-02-23 17:13:00,
2013-02-23 09:28:00,38.5,33.0,30.37,NW,321,0.0,1.0,79,0.00,,,0.00,weatherlink.com 1.10,2013-02-23 17:28:00,
2013-02-23 09:43:00,39.3,33.0,30.38,East,89,0.0,1.0,78,0.00,,,0.00,weatherlink.com 1.10,2013-02-23 17:43:00,
2013-02-23 09:58:00,39.8,33.0,30.39,WNW,300,1.0,2.0,76,0.00,,,0.00,weatherlink.com 1.10,2013-02-23 17:58:00,
2013-02-23 10:13:00,40.0,33.0,30.39,West,277,2.0,2.0,77,0.00,,,0.00,weatherlink.com 1.10,2013-02-23 18:13:00,
2013-02-23 10:28:00,40.7,33.0,30.39,NNE,25,2.0,3.0,73,0.00,,,0.00,weatherlink.com 1.10,2013-02-23 18:28:00,
2013-02-23 10:43:00,41.3,33.0,30.39,NE,51,1.0,4.0,72,0.00,,,0.00,weatherlink.com 1.10,2013-02-23 18:43:00,
2013-02-23 10:58:00,41.2,34.0,30.39,NW,315,1.0,7.0,74,0.00,,,0.00,weatherlink.com 1.10,2013-02-23 18:58:00,
2013-02-23 11:13:00,41.0,33.0,30.39,NW,316,4.0,8.0,73,0.00,,,0.00,weatherlink.com 1.10,2013-02-23 19:13:00,
2013-02-23 11:28:00,41.3,34.0,30.40,WSW,247,1.0,5.0,75,0.00,,,0.00,weatherlink.com 1.10,2013-02-23 19:28:00,
2013-02-23 11:43:00,40.5,34.0,30.40,West,280,2.0,8.0,78,0.00,,,0.00,weatherlink.com 1.10,2013-02-23 19:43:00,
2013-02-23 11:58:00,40.7,34.0,30.39,WNW,301,1.0,5.0,76,0.00,,,0.00,weatherlink.com 1.10,2013-02-23 19:58:00,
2013-02-23 12:13:00,42.4,35.0,30.39,NW,305,0.0,4.0,74,0.00,,,0.00,weatherlink.com 1.10,2013-02-23 20:13:00,
2013-02-23 12:28:00,42.8,33.0,30.38,WSW,252,0.0,9.0,69,0.00,,,0.00,weatherlink.com 1.10,2013-02-23 20:28:00,
2013-02-23 12:43:00,43.7,34.0,30.38,WNW,295,8.0,8.0,69,0.00,,,0.00,weatherlink.com 1.10,2013-02-23 20:43:00,
2013-02-23 12:58:00,43.9,32.0,30.37,WNW,290,4.0,8.0,64,0.00,,,0.00,weatherlink.com 1.10,2013-02-23 20:58:00,
2013-02-23 13:13:00,42.5,32.0,30.38,North,360,1.0,5.0,67,0.00,,,0.00,weatherlink.com 1.10,2013-02-23 21:13:00,
2013-02-23 13:28:00,43.7,33.0,30.37,West,263,3.0,5.0,66,0.00,,,0.00,weatherlink.com 1.10,2013-02-23 21:28:00,
2013-02-23 13:43:00,42.9,33.0,30.37,West,273,2.0,7.0,68,0.00,,,0.00,weatherlink.com 1.10,2013-02-23 21:43:00,
2013-02-23 13:58:00,42.3,33.0,30.37,NW,304,2.0,6.0,70,0.00,,,0.00,weatherlink.com 1.10,2013-02-23 21:58:00,
2013-02-23 14:13:00,42.3,33.0,30.37,West,276,2.0,9.0,70,0.00,,,0.00,weatherlink.com 1.10,2013-02-23 22:13:00,
2013-02-23 14:29:00,44.9,34.0,30.37,NW,311,0.0,5.0,67,0.00,,,0.00,weatherlink.com 1.10,2013-02-23 22:29:00,
2013-02-23 14:44:00,44.5,33.0,30.36,WNW,301,3.0,5.0,64,0.00,,,0.00,weatherlink.com 1.10,2013-02-23 22:44:00,
2013-02-23 14:59:00,43.9,33.0,30.36,NW,307,6.0,9.0,66,0.00,,,0.00,weatherlink.com 1.10,2013-02-23 22:59:00,
2013-02-23 15:14:00,45.2,34.0,30.36,NW,326,2.0,4.0,66,0.00,,,0.00,weatherlink.com 1.10,2013-02-23 23:14:00,
2013-02-23 15:29:00,45.7,33.0,30.36,NNW,335,2.0,5.0,62,0.00,,,0.00,weatherlink.com 1.10,2013-02-23 23:29:00,
2013-02-23 15:44:00,44.8,34.0,30.37,NNW,340,1.0,6.0,65,0.00,,,0.00,weatherlink.com 1.10,2013-02-23 23:44:00,
2013-02-23 15:59:00,41.4,36.0,30.38,NE,46,3.0,11.0,80,0.00,,,0.00,weatherlink.com 1.10,2013-02-23 23:59:00,
2013-02-23 16:14:00,39.3,35.0,30.39,NNE,33,5.0,8.0,85,0.00,,,0.00,weatherlink.com 1.10,2013-02-24 00:14:00,
2013-02-23 16:29:00,39.2,36.0,30.39,ESE,110,2.0,4.0,87,0.00,,,0.00,weatherlink.com 1.10,2013-02-24 00:29:00,
2013-02-23 16:44:00,41.2,37.0,30.39,NNE,18,2.0,3.0,84,0.00,,,0.00,weatherlink.com 1.10,2013-02-24 00:44:00,
2013-02-23 16:59:00,41.3,35.0,30.40,NNW,334,2.0,4.0,79,0.00,,,0.00,weatherlink.com 1.10,2013-02-24 00:59:00,
2013-02-23 17:14:00,41.1,35.0,30.40,WNW,299,1.0,4.0,79,0.00,,,0.00,weatherlink.com 1.10,2013-02-24 01:14:00,
2013-02-23 17:29:00,40.0,34.0,30.41,West,264,0.0,3.0,80,0.00,,,0.00,weatherlink.com 1.10,2013-02-24 01:29:00,
2013-02-23 17:44:00,39.6,34.0,30.41,WNW,297,0.0,2.0,81,0.00,,,0.00,weatherlink.com 1.10,2013-02-24 01:44:00,
2013-02-23 17:59:00,38.1,34.0,30.41,ESE,113,1.0,2.0,84,0.00,,,0.00,weatherlink.com 1.10,2013-02-24 01:59:00,
2013-02-23 18:14:00,36.7,34.0,30.41,East,99,1.0,1.0,89,0.00,,,0.00,weatherlink.com 1.10,2013-02-24 02:14:00,
2013-02-23 18:29:00,36.8,34.0,30.41,ENE,73,0.0,1.0,89,0.00,,,0.00,weatherlink.com 1.10,2013-02-24 02:29:00,
2013-02-23 18:44:00,36.6,34.0,30.42,ENE,74,0.0,1.0,89,0.00,,,0.00,weatherlink.com 1.10,2013-02-24 02:44:00,
2013-02-23 18:59:00,36.3,33.0,30.42,ENE,73,0.0,1.0,89,0.00,,,0.00,weatherlink.com 1.10,2013-02-24 02:59:00,
2013-02-23 19:14:00,33.6,30.0,30.42,ESE,106,0.0,1.0,88,0.00,,,0.00,weatherlink.com 1.10,2013-02-24 03:14:00,
2013-02-23 19:29:00,34.3,32.0,30.42,North,355,1.0,2.0,91,0.00,,,0.00,weatherlink.com 1.10,2013-02-24 03:29:00,
2013-02-23 19:44:00,35.1,32.0,30.43,NE,46,1.0,1.0,88,0.00,,,0.00,weatherlink.com 1.10,2013-02-24 03:44:00,
2013-02-23 19:59:00,36.1,32.0,30.43,ENE,73,1.0,4.0,85,0.00,,,0.00,weatherlink.com 1.10,2013-02-24 03:59:00,
2013-02-23 20:14:00,36.3,32.0,30.44,ENE,65,2.0,2.0,84,0.00,,,0.00,weatherlink.com 1.10,2013-02-24 04:14:00,
2013-02-23 20:29:00,36.4,31.0,30.44,East,89,2.0,3.0,82,0.00,,,0.00,weatherlink.com 1.10,2013-02-24 04:29:00,
2013-02-23 20:44:00,36.8,31.0,30.44,NNE,23,0.0,3.0,80,0.00,,,0.00,weatherlink.com 1.10,2013-02-24 04:44:00,
2013-02-23 20:59:00,36.9,31.0,30.44,ENE,73,1.0,3.0,79,0.00,,,0.00,weatherlink.com 1.10,2013-02-24 04:59:00,
2013-02-23 21:14:00,35.9,31.0,30.44,WSW,245,0.0,2.0,81,0.00,,,0.00,weatherlink.com 1.10,2013-02-24 05:14:00,
2013-02-23 21:29:00,33.5,30.0,30.44,ESE,108,0.0,2.0,85,0.00,,,0.00,weatherlink.com 1.10,2013-02-24 05:29:00,
2013-02-23 21:44:00,33.3,30.0,30.45,ESE,108,0.0,1.0,88,0.00,,,0.00,weatherlink.com 1.10,2013-02-24 05:44:00,
2013-02-23 21:59:00,31.5,29.0,30.45,East,93,0.0,3.0,89,0.00,,,0.00,weatherlink.com 1.10,2013-02-24 05:59:00,
2013-02-23 22:14:00,32.1,29.0,30.45,ENE,77,1.0,1.0,88,0.00,,,0.00,weatherlink.com 1.10,2013-02-24 06:14:00,
2013-02-23 22:29:00,30.5,28.0,30.45,ENE,71,2.0,3.0,89,0.00,,,0.00,weatherlink.com 1.10,2013-02-24 06:29:00,
2013-02-23 22:44:00,30.5,28.0,30.46,East,99,1.0,3.0,90,0.00,,,0.00,weatherlink.com 1.10,2013-02-24 06:44:00,
2013-02-23 22:59:00,30.0,28.0,30.46,East,97,2.0,3.0,91,0.00,,,0.00,weatherlink.com 1.10,2013-02-24 06:59:00,
2013-02-23 23:14:00,30.7,29.0,30.46,ENE,65,1.0,3.0,92,0.00,,,0.00,weatherlink.com 1.10,2013-02-24 07:14:00,
2013-02-23 23:29:00,31.3,29.0,30.46,ESE,108,0.0,1.0,90,0.00,,,0.00,weatherlink.com 1.10,2013-02-24 07:29:00,
2013-02-23 23:44:00,29.1,26.0,30.46,ESE,108,0.0,1.0,89,0.00,,,0.00,weatherlink.com 1.10,2013-02-24 07:44:00,
2013-02-23 23:59:00,29.2,28.0,30.46,ESE,108,0.0,1.0,93,0.00,,,0.00,weatherlink.com 1.10,2013-02-24 07:59:00,